Time,TemperatureF,DewpointF,PressureIn,WindDirection,WindDirectionDegrees,WindSpeedMPH,WindSpeedGustMPH,Humidity,HourlyPrecipIn,Conditions,Clouds,dailyrainin,SoftwareType,DateUTC
2013-04-15 00:00:00,52.3,46.0,29.77,WNW,292,0.0,0.0,79,0.00,RA,,0.00,WeatherDisplay:10.37,2013-04-15 04:00:00,
2013-04-15 00:01:00,52.3,46.0,29.77,WNW,292,0.0,0.0,79,0.00,RA,,0.00,WeatherDisplay:10.37,2013-04-15 04:01:00,
2013-04-15 00:06:00,52.0,45.7,29.77,WNW,292,0.0,0.0,79,0.00,RA,,0.00,WeatherDisplay:10.37,2013-04-15 04:06:00,
2013-04-15 00:11:00,52.0,45.7,29.77,WNW,292,0.0,0.0,79,0.00,CLR,,0.00,WeatherDisplay:10.37,2013-04-15 04:11:00,
2013-04-15 00:16:00,52.0,46.0,29.77,WNW,292,0.0,0.0,80,0.00,CLR,,0.00,WeatherDisplay:10.37,2013-04-15 04:16:00,
2013-04-15 00:22:00,51.8,45.8,29.77,WNW,292,0.0,0.0,80,0.00,CLR,,0.00,WeatherDisplay:10.37,2013-04-15 04:22:00,
2013-04-15 00:27:00,51.6,46.0,29.77,WNW,292,0.0,0.0,81,0.00,CLR,,0.00,WeatherDisplay:10.37,2013-04-15 04:27:00,
2013-04-15 00:32:00,51.6,46.0,29.77,WNW,292,0.0,0.0,81,0.00,CLR,,0.00,WeatherDisplay:10.37,2013-04-15 04:32:00,
2013-04-15 00:37:00,51.6,46.0,29.76,WNW,292,0.0,0.0,81,0.00,CLR,,0.00,WeatherDisplay:10.37,2013-04-15 04:37:00,
2013-04-15 00:42:00,51.6,46.3,29.76,WNW,292,0.0,0.0,82,0.00,RA,,0.02,WeatherDisplay:10.37,2013-04-15 04:42:00,
2013-04-15 00:48:00,51.6,46.3,29.76,WNW,292,0.0,0.0,82,0.00,RA,,0.02,WeatherDisplay:10.37,2013-04-15 04:48:00,
2013-04-15 00:53:00,51.6,46.6,29.76,WNW,292,0.0,0.0,83,0.04,CLR,,0.02,WeatherDisplay:10.37,2013-04-15 04:53:00,
2013-04-15 00:58:00,51.4,46.1,29.76,WNW,292,0.0,0.0,82,0.04,CLR,,0.02,WeatherDisplay:10.37,2013-04-15 04:58:00,
2013-04-15 01:03:00,51.6,46.3,29.76,WNW,292,0.0,0.0,82,0.04,RA,,0.04,WeatherDisplay:10.37,2013-04-15 05:03:00,
2013-04-15 01:08:00,51.6,46.3,29.76,WNW,292,0.0,0.0,82,0.04,RA,,0.04,WeatherDisplay:10.37,2013-04-15 05:08:00,
2013-04-15 01:13:00,51.8,46.8,29.76,WNW,292,0.0,0.0,83,0.04,CLR,,0.04,WeatherDisplay:10.37,2013-04-15 05:13:00,
2013-04-15 01:18:00,51.8,46.8,29.76,WNW,292,0.0,0.0,83,0.07,RA,,0.07,WeatherDisplay:10.37,2013-04-15 05:18:00,
2013-04-15 01:23:00,51.8,46.8,29.76,WNW,292,0.0,0.0,83,0.07,RA,,0.07,WeatherDisplay:10.37,2013-04-15 05:23:00,
2013-04-15 01:28:00,51.8,46.5,29.76,WNW,292,0.0,0.0,82,0.07,CLR,,0.07,WeatherDisplay:10.37,2013-04-15 05:28:00,
2013-04-15 01:33:00,52.0,47.0,29.76,WNW,292,0.0,0.0,83,0.09,RA,,0.09,WeatherDisplay:10.37,2013-04-15 05:33:00,
2013-04-15 01:38:00,52.2,47.2,29.76,WNW,292,0.0,0.0,83,0.09,RA,,0.09,WeatherDisplay:10.37,2013-04-15 05:38:00,
2013-04-15 01:43:00,52.0,47.0,29.76,WNW,292,0.0,0.0,83,0.07,CLR,,0.09,WeatherDisplay:10.37,2013-04-15 05:43:00,
2013-04-15 01:48:00,52.0,47.0,29.76,WNW,292,0.0,0.0,83,0.07,CLR,,0.09,WeatherDisplay:10.37,2013-04-15 05:48:00,
2013-04-15 01:53:00,51.6,46.6,29.75,WNW,292,0.0,0.0,83,0.09,RA,,0.11,WeatherDisplay:10.37,2013-04-15 05:53:00,
2013-04-15 01:58:00,51.6,46.6,29.75,WNW,292,0.0,0.0,83,0.09,RA,,0.11,WeatherDisplay:10.37,2013-04-15 05:58:00,
2013-04-15 02:03:00,51.6,46.6,29.75,WNW,292,0.0,0.0,83,0.07,CLR,,0.11,WeatherDisplay:10.37,2013-04-15 06:03:00,
2013-04-15 02:08:00,51.6,46.6,29.75,WNW,292,0.0,0.0,83,0.07,CLR,,0.11,WeatherDisplay:10.37,2013-04-15 06:08:00,
2013-04-15 02:13:00,51.6,46.6,29.75,WNW,292,0.0,0.0,83,0.09,RA,,0.13,WeatherDisplay:10.37,2013-04-15 06:13:00,
2013-04-15 02:18:00,51.6,46.6,29.75,WNW,292,0.0,0.0,83,0.07,RA,,0.13,WeatherDisplay:10.37,2013-04-15 06:18:00,
2013-04-15 02:23:00,51.6,46.9,29.75,WNW,292,0.0,0.0,84,0.07,CLR,,0.13,WeatherDisplay:10.37,2013-04-15 06:23:00,
2013-04-15 02:28:00,51.8,46.8,29.75,WNW,292,0.0,0.0,83,0.07,CLR,,0.13,WeatherDisplay:10.37,2013-04-15 06:28:00,
2013-04-15 02:33:00,51.8,47.1,29.75,WNW,292,0.0,0.0,84,0.04,CLR,,0.13,WeatherDisplay:10.37,2013-04-15 06:33:00,
2013-04-15 02:38:00,51.8,47.1,29.75,WNW,292,0.0,0.0,84,0.04,CLR,,0.13,WeatherDisplay:10.37,2013-04-15 06:38:00,
2013-04-15 02:43:00,51.8,47.1,29.75,WNW,292,0.0,0.0,84,0.04,CLR,,0.13,WeatherDisplay:10.37,2013-04-15 06:43:00,
2013-04-15 02:48:00,51.8,47.1,29.75,WNW,292,0.0,0.0,84,0.04,CLR,,0.13,WeatherDisplay:10.37,2013-04-15 06:48:00,
2013-04-15 02:53:00,51.8,47.1,29.75,WNW,292,0.0,0.0,84,0.02,CLR,,0.13,WeatherDisplay:10.37,2013-04-15 06:53:00,
2013-04-15 02:58:00,51.8,47.1,29.75,WNW,292,0.0,0.0,84,0.04,RA,,0.16,WeatherDisplay:10.37,2013-04-15 06:58:00,
2013-04-15 03:03:00,51.8,47.1,29.75,WNW,292,0.0,0.0,84,0.04,RA,,0.16,WeatherDisplay:10.37,2013-04-15 07:03:00,
2013-04-15 03:41:00,52.0,47.6,29.74,WNW,292,0.0,0.0,85,0.02,CLR,,0.16,WeatherDisplay:10.37,2013-04-15 07:41:00,
2013-04-15 03:42:00,51.8,47.4,29.74,WNW,292,0.0,0.0,85,0.02,CLR,,0.16,WeatherDisplay:10.37,2013-04-15 07:42:00,
2013-04-15 03:47:00,51.8,47.4,29.74,WNW,292,0.0,0.0,85,0.02,CLR,,0.16,WeatherDisplay:10.37,2013-04-15 07:47:00,
2013-04-15 03:48:00,51.8,47.4,29.75,WNW,292,0.0,0.0,85,0.02,CLR,,0.16,WeatherDisplay:10.37,2013-04-15 07:48:00,
2013-04-15 03:49:00,51.8,47.4,29.75,WNW,292,0.0,0.0,85,0.02,CLR,,0.16,WeatherDisplay:10.37,2013-04-15 07:49:00,
2013-04-15 03:54:00,52.0,47.3,29.75,WNW,292,0.0,0.0,84,0.02,CLR,,0.16,WeatherDisplay:10.37,2013-04-15 07:54:00,
2013-04-15 03:59:00,52.0,47.6,29.75,WNW,292,0.0,0.0,85,0.00,CLR,,0.16,WeatherDisplay:10.37,2013-04-15 07:59:00,
2013-04-15 04:04:00,52.2,47.8,29.74,WNW,292,0.0,0.0,85,0.00,CLR,,0.16,WeatherDisplay:10.37,2013-04-15 08:04:00,
2013-04-15 04:09:00,52.2,47.8,29.74,WNW,292,0.0,0.0,85,0.00,CLR,,0.16,WeatherDisplay:10.37,2013-04-15 08:09:00,
2013-04-15 04:14:00,52.2,47.8,29.74,WNW,292,0.0,0.0,85,0.00,CLR,,0.16,WeatherDisplay:10.37,2013-04-15 08:14:00,
2013-04-15 04:19:00,52.2,47.8,29.74,WNW,292,0.0,0.0,85,0.00,CLR,,0.16,WeatherDisplay:10.37,2013-04-15 08:19:00,
2013-04-15 04:24:00,52.2,47.8,29.74,WNW,292,0.0,0.0,85,0.00,CLR,,0.16,WeatherDisplay:10.37,2013-04-15 08:24:00,
2013-04-15 04:29:00,52.0,47.9,29.74,WNW,292,0.0,0.0,86,0.00,CLR,,0.16,WeatherDisplay:10.37,2013-04-15 08:29:00,
2013-04-15 04:34:00,52.0,47.6,29.74,WNW,292,0.0,0.0,85,0.00,CLR,,0.16,WeatherDisplay:10.37,2013-04-15 08:34:00,
2013-04-15 04:35:00,52.0,47.6,29.74,WNW,292,0.0,0.0,85,0.00,CLR,,0.16,WeatherDisplay:10.37,2013-04-15 08:35:00,
2013-04-15 04:40:00,52.0,47.6,29.74,WNW,292,0.0,0.0,85,0.00,CLR,,0.16,WeatherDisplay:10.37,2013-04-15 08:40:00,
2013-04-15 04:45:00,51.8,47.4,29.74,WNW,292,0.0,0.0,85,0.00,CLR,,0.16,WeatherDisplay:10.37,2013-04-15 08:45:00,
2013-04-15 04:50:00,51.8,47.7,29.75,WNW,292,0.0,0.0,86,0.00,CLR,,0.16,WeatherDisplay:10.37,2013-04-15 08:50:00,
2013-04-15 04:55:00,51.8,47.7,29.75,NNE,22,2.0,4.6,86,0.02,RA,,0.18,WeatherDisplay:10.37,2013-04-15 08:55:00,
2013-04-15 05:00:00,51.8,47.7,29.75,NNE,22,0.0,0.0,86,0.02,RA,,0.18,WeatherDisplay:10.37,2013-04-15 09:00:00,
2013-04-15 05:05:00,51.8,47.7,29.75,NNE,22,0.0,0.0,86,0.02,CLR,,0.18,WeatherDisplay:10.37,2013-04-15 09:05:00,
2013-04-15 05:10:00,52.0,47.9,29.75,NNE,22,0.0,0.0,86,0.02,CLR,,0.18,WeatherDisplay:10.37,2013-04-15 09:10:00,
2013-04-15 05:15:00,52.0,47.9,29.75,NNE,22,0.0,0.0,86,0.02,CLR,,0.18,WeatherDisplay:10.37,2013-04-15 09:15:00,
2013-04-15 05:20:00,52.0,47.9,29.75,NNE,22,0.0,0.0,86,0.02,CLR,,0.18,WeatherDisplay:10.37,2013-04-15 09:20:00,
2013-04-15 05:25:00,52.0,47.9,29.75,NNE,22,0.0,0.0,86,0.02,CLR,,0.18,WeatherDisplay:10.37,2013-04-15 09:25:00,
2013-04-15 05:30:00,52.2,48.1,29.75,NNE,22,0.0,0.0,86,0.02,CLR,,0.18,WeatherDisplay:10.37,2013-04-15 09:30:00,
2013-04-15 05:35:00,52.2,48.1,29.76,NNE,22,0.0,0.0,86,0.02,CLR,,0.18,WeatherDisplay:10.37,2013-04-15 09:35:00,
2013-04-15 05:40:00,52.2,48.1,29.76,NNE,22,0.0,0.0,86,0.02,CLR,,0.18,WeatherDisplay:10.37,2013-04-15 09:40:00,
2013-04-15 05:45:00,52.3,48.3,29.76,NNE,22,0.0,0.0,86,0.02,CLR,,0.18,WeatherDisplay:10.37,2013-04-15 09:45:00,
2013-04-15 05:50:00,52.3,48.3,29.76,NNE,22,0.0,0.0,86,0.02,CLR,,0.18,WeatherDisplay:10.37,2013-04-15 09:50:00,
2013-04-15 05:55:00,52.3,48.3,29.76,NNE,22,0.0,0.0,86,0.00,CLR,,0.18,WeatherDisplay:10.37,2013-04-15 09:55:00,
2013-04-15 06:00:00,52.5,48.5,29.76,NNE,22,0.0,0.0,86,0.00,CLR,,0.18,WeatherDisplay:10.37,2013-04-15 10:00:00,
2013-04-15 06:05:00,52.5,48.5,29.76,NNE,22,0.0,0.0,86,0.00,CLR,,0.18,WeatherDisplay:10.37,2013-04-15 10:05:00,
2013-04-15 06:10:00,52.5,48.5,29.76,NNE,22,0.0,0.0,86,0.00,CLR,,0.18,WeatherDisplay:10.37,2013-04-15 10:10:00,
2013-04-15 06:15:00,52.5,48.5,29.77,NNE,22,0.0,0.0,86,0.00,CLR,,0.18,WeatherDisplay:10.37,2013-04-15 10:15:00,
2013-04-15 06:20:00,52.5,48.5,29.77,NNE,22,0.0,0.0,86,0.00,CLR,,0.18,WeatherDisplay:10.37,2013-04-15 10:20:00,
2013-04-15 06:25:00,52.5,48.5,29.77,NNE,22,0.0,0.0,86,0.00,CLR,,0.18,WeatherDisplay:10.37,2013-04-15 10:25:00,
2013-04-15 06:30:00,52.5,48.5,29.77,NNE,22,0.0,0.0,86,0.00,CLR,,0.18,WeatherDisplay:10.37,2013-04-15 10:30:00,
2013-04-15 06:35:00,52.3,48.3,29.77,NNE,22,0.0,0.0,86,0.00,CLR,,0.18,WeatherDisplay:10.37,2013-04-15 10:35:00,
2013-04-15 06:40:00,52.3,48.3,29.77,NNE,22,0.0,0.0,86,0.00,CLR,,0.18,WeatherDisplay:10.37,2013-04-15 10:40:00,
2013-04-15 06:45:00,52.3,48.3,29.77,NNE,22,0.0,0.0,86,0.00,CLR,,0.18,WeatherDisplay:10.37,2013-04-15 10:45:00,
2013-04-15 06:50:00,52.5,48.5,29.77,NNE,22,0.0,0.0,86,0.00,CLR,,0.18,WeatherDisplay:10.37,2013-04-15 10:50:00,
2013-04-15 06:55:00,52.5,48.5,29.77,NNE,22,0.0,0.0,86,0.00,CLR,,0.18,WeatherDisplay:10.37,2013-04-15 10:55:00,
2013-04-15 07:01:00,52.5,48.5,29.77,NNE,22,0.0,0.0,86,0.00,CLR,,0.18,WeatherDisplay:10.37,2013-04-15 11:01:00,
2013-04-15 07:06:00,52.5,48.5,29.77,NNE,22,0.0,0.0,86,0.00,CLR,,0.18,WeatherDisplay:10.37,2013-04-15 11:06:00,
2013-04-15 07:11:00,52.5,48.5,29.77,NNE,22,0.0,0.0,86,0.00,CLR,,0.18,WeatherDisplay:10.37,2013-04-15 11:11:00,
2013-04-15 07:16:00,52.5,48.5,29.77,NNE,22,0.0,0.0,86,0.00,CLR,,0.18,WeatherDisplay:10.37,2013-04-15 11:16:00,
2013-04-15 07:21:00,52.5,48.5,29.78,NNE,22,0.0,0.0,86,0.00,CLR,,0.18,WeatherDisplay:10.37,2013-04-15 11:21:00,
2013-04-15 07:26:00,52.5,48.5,29.78,NNE,22,0.0,0.0,86,0.00,CLR,,0.18,WeatherDisplay:10.37,2013-04-15 11:26:00,
2013-04-15 07:31:00,52.7,48.6,29.78,NNE,22,0.0,0.0,86,0.00,CLR,,0.18,WeatherDisplay:10.37,2013-04-15 11:31:00,
2013-04-15 07:37:00,52.9,48.8,29.79,NNE,22,0.0,0.0,86,0.02,RA,,0.20,WeatherDisplay:10.37,2013-04-15 11:37:00,
2013-04-15 07:42:00,52.9,48.8,29.79,NNE,22,0.0,0.0,86,0.02,RA,,0.20,WeatherDisplay:10.37,2013-04-15 11:42:00,
2013-04-15 07:47:00,52.9,48.8,29.80,NNE,22,0.0,0.0,86,0.02,CLR,,0.20,WeatherDisplay:10.37,2013-04-15 11:47:00,
2013-04-15 07:52:00,52.7,48.6,29.80,NNE,22,0.0,0.0,86,0.02,,,0.20,WeatherDisplay:10.37,2013-04-15 11:52:00,
2013-04-15 07:57:00,52.9,48.8,29.80,NNE,22,0.0,0.0,86,0.02,,,0.20,WeatherDisplay:10.37,2013-04-15 11:57:00,
2013-04-15 08:02:00,52.9,48.8,29.80,NNE,22,0.0,0.0,86,0.02,,,0.20,WeatherDisplay:10.37,2013-04-15 12:02:00,
2013-04-15 08:07:00,52.9,48.8,29.80,NNE,22,0.0,0.0,86,0.02,,,0.20,WeatherDisplay:10.37,2013-04-15 12:07:00,
2013-04-15 08:12:00,53.2,49.2,29.80,NNE,22,0.0,0.0,86,0.02,,,0.20,WeatherDisplay:10.37,2013-04-15 12:12:00,
2013-04-15 08:17:00,53.2,49.2,29.81,NNE,22,0.0,0.0,86,0.02,,,0.20,WeatherDisplay:10.37,2013-04-15 12:17:00,
2013-04-15 08:22:00,53.2,49.2,29.81,NNE,22,0.0,0.0,86,0.02,,,0.20,WeatherDisplay:10.37,2013-04-15 12:22:00,
2013-04-15 08:27:00,53.2,49.2,29.82,NNE,22,0.0,0.0,86,0.02,,,0.20,WeatherDisplay:10.37,2013-04-15 12:27:00,
2013-04-15 08:33:00,53.4,49.6,29.81,NNE,22,0.0,0.0,87,0.00,,,0.20,WeatherDisplay:10.37,2013-04-15 12:33:00,
2013-04-15 08:38:00,53.4,49.3,29.81,NNE,22,0.0,0.0,86,0.00,,,0.20,WeatherDisplay:10.37,2013-04-15 12:38:00,
2013-04-15 08:43:00,53.4,49.3,29.82,NNE,22,0.0,0.0,86,0.00,,,0.20,WeatherDisplay:10.37,2013-04-15 12:43:00,
2013-04-15 08:48:00,53.6,49.5,29.81,NNE,22,0.0,0.0,86,0.00,,,0.20,WeatherDisplay:10.37,2013-04-15 12:48:00,
2013-04-15 08:53:00,53.8,49.7,29.81,NNE,22,0.0,0.0,86,0.00,,,0.20,WeatherDisplay:10.37,2013-04-15 12:53:00,
2013-04-15 08:58:00,53.8,49.7,29.81,NNE,22,0.0,0.0,86,0.00,,,0.20,WeatherDisplay:10.37,2013-04-15 12:58:00,
2013-04-15 09:03:00,53.8,50.0,29.82,NNE,22,0.0,0.0,87,0.00,,,0.20,WeatherDisplay:10.37,2013-04-15 13:03:00,
2013-04-15 09:08:00,54.0,49.9,29.82,NNE,22,0.0,0.0,86,0.00,,,0.20,WeatherDisplay:10.37,2013-04-15 13:08:00,
2013-04-15 09:13:00,54.0,49.9,29.82,NNE,22,0.0,0.0,86,0.00,,,0.20,WeatherDisplay:10.37,2013-04-15 13:13:00,
2013-04-15 09:18:00,54.1,50.4,29.82,NNE,22,0.0,0.0,87,0.00,,,0.20,WeatherDisplay:10.37,2013-04-15 13:18:00,
2013-04-15 09:23:00,54.3,50.5,29.83,NNE,22,0.0,0.0,87,0.00,,,0.20,WeatherDisplay:10.37,2013-04-15 13:23:00,
2013-04-15 09:28:00,54.3,50.5,29.83,NNE,22,0.0,0.0,87,0.00,,,0.20,WeatherDisplay:10.37,2013-04-15 13:28:00,
2013-04-15 09:33:00,54.7,50.9,29.82,NNE,22,0.0,0.0,87,0.00,,,0.20,WeatherDisplay:10.37,2013-04-15 13:33:00,
2013-04-15 09:38:00,54.7,50.9,29.83,NNE,22,0.0,0.0,87,0.00,,,0.20,WeatherDisplay:10.37,2013-04-15 13:38:00,
2013-04-15 09:43:00,55.0,51.2,29.83,NNE,22,0.0,0.0,87,0.00,,,0.20,WeatherDisplay:10.37,2013-04-15 13:43:00,
2013-04-15 09:48:00,55.2,51.4,29.83,NNE,22,0.0,0.0,87,0.00,,,0.20,WeatherDisplay:10.37,2013-04-15 13:48:00,
2013-04-15 09:53:00,55.2,51.1,29.83,NNE,22,0.0,0.0,86,0.00,,,0.20,WeatherDisplay:10.37,2013-04-15 13:53:00,
2013-04-15 09:58:00,55.4,51.3,29.83,East,90,0.0,0.0,86,0.00,,,0.20,WeatherDisplay:10.37,2013-04-15 13:58:00,
2013-04-15 10:04:00,55.4,51.3,29.83,SE,135,0.0,0.0,86,0.00,,,0.20,WeatherDisplay:10.37,2013-04-15 14:04:00,
2013-04-15 10:09:00,55.6,51.5,29.83,SE,135,0.2,1.1,86,0.00,,,0.20,WeatherDisplay:10.37,2013-04-15 14:09:00,
2013-04-15 10:14:00,55.8,51.6,29.83,SE,135,0.0,0.0,86,0.00,,,0.20,WeatherDisplay:10.37,2013-04-15 14:14:00,
2013-04-15 10:19:00,55.8,51.6,29.83,SE,135,0.0,0.0,86,0.00,,,0.20,WeatherDisplay:10.37,2013-04-15 14:19:00,
2013-04-15 10:24:00,55.8,51.6,29.83,SE,135,0.0,0.0,86,0.00,,,0.20,WeatherDisplay:10.37,2013-04-15 14:24:00,
2013-04-15 10:29:00,55.9,51.8,29.82,SE,135,0.0,0.0,86,0.00,,,0.20,WeatherDisplay:10.37,2013-04-15 14:29:00,
2013-04-15 10:34:00,55.9,51.8,29.83,SE,135,0.0,0.0,86,0.00,,,0.20,WeatherDisplay:10.37,2013-04-15 14:34:00,
2013-04-15 10:39:00,55.9,51.8,29.83,SE,135,0.0,0.0,86,0.00,,,0.20,WeatherDisplay:10.37,2013-04-15 14:39:00,
2013-04-15 10:44:00,55.9,51.8,29.83,SE,135,0.0,2.3,86,0.00,,,0.20,WeatherDisplay:10.37,2013-04-15 14:44:00,
2013-04-15 10:49:00,55.9,51.8,29.84,SE,135,0.5,1.1,86,0.00,,,0.20,WeatherDisplay:10.37,2013-04-15 14:49:00,
2013-04-15 10:54:00,55.9,51.8,29.84,SE,135,0.0,0.0,86,0.00,,,0.20,WeatherDisplay:10.37,2013-04-15 14:54:00,
2013-04-15 10:59:00,56.1,52.0,29.84,SE,135,0.0,0.0,86,0.00,,,0.20,WeatherDisplay:10.37,2013-04-15 14:59:00,
2013-04-15 11:04:00,56.1,52.0,29.84,SSE,158,1.2,1.2,86,0.00,,,0.20,WeatherDisplay:10.37,2013-04-15 15:04:00,
2013-04-15 11:09:00,56.3,52.2,29.84,SSE,158,0.0,0.0,86,0.00,,,0.20,WeatherDisplay:10.37,2013-04-15 15:09:00,
2013-04-15 11:14:00,56.3,52.2,29.84,SSE,158,0.0,0.0,86,0.00,,,0.20,WeatherDisplay:10.37,2013-04-15 15:14:00,
2013-04-15 11:19:00,56.7,52.5,29.85,SSE,158,0.0,0.0,86,0.00,,,0.20,WeatherDisplay:10.37,2013-04-15 15:19:00,
2013-04-15 11:24:00,57.0,52.9,29.84,SSE,158,0.0,0.0,86,0.00,,,0.20,WeatherDisplay:10.37,2013-04-15 15:24:00,
2013-04-15 11:29:00,57.6,53.4,29.85,SE,135,2.4,3.5,86,0.00,,,0.20,WeatherDisplay:10.37,2013-04-15 15:29:00,
2013-04-15 11:34:00,57.9,53.8,29.85,SE,135,0.0,0.0,86,0.00,,,0.20,WeatherDisplay:10.37,2013-04-15 15:34:00,
2013-04-15 11:39:00,58.3,53.8,29.85,SE,135,0.0,1.1,85,0.00,,,0.20,WeatherDisplay:10.37,2013-04-15 15:39:00,
2013-04-15 11:44:00,58.8,54.0,29.85,SE,135,0.0,3.0,84,0.00,,,0.20,WeatherDisplay:10.37,2013-04-15 15:44:00,
2013-04-15 11:49:00,59.4,54.5,29.85,SE,146,0.0,5.0,84,0.00,,,0.20,WeatherDisplay:10.37,2013-04-15 15:49:00,
2013-04-15 11:55:00,60.1,55.2,29.85,South,180,0.0,0.0,84,0.00,,,0.20,WeatherDisplay:10.37,2013-04-15 15:55:00,
2013-04-15 12:00:00,61.0,56.1,29.85,South,180,0.0,0.0,84,0.00,,,0.20,WeatherDisplay:10.37,2013-04-15 16:00:00,
2013-04-15 12:05:00,62.2,56.7,29.85,SE,135,0.0,0.0,82,0.00,,,0.20,WeatherDisplay:10.37,2013-04-15 16:05:00,
2013-04-15 12:10:00,62.8,56.9,29.86,South,180,0.0,1.1,81,0.00,,,0.20,WeatherDisplay:10.37,2013-04-15 16:10:00,
2013-04-15 12:15:00,63.3,57.0,29.86,South,180,0.0,1.1,80,0.00,,,0.20,WeatherDisplay:10.37,2013-04-15 16:15:00,
2013-04-15 12:20:00,63.5,56.5,29.86,SSE,158,0.0,0.0,78,0.00,,,0.20,WeatherDisplay:10.37,2013-04-15 16:20:00,
2013-04-15 12:25:00,63.7,56.3,29.85,SE,135,0.0,0.0,77,0.00,,,0.20,WeatherDisplay:10.37,2013-04-15 16:25:00,
2013-04-15 12:30:00,64.2,56.5,29.85,East,90,0.0,0.0,76,0.00,,,0.20,WeatherDisplay:10.37,2013-04-15 16:30:00,
2013-04-15 12:35:00,64.2,56.5,29.85,SSE,158,0.7,2.3,76,0.00,,,0.20,WeatherDisplay:10.37,2013-04-15 16:35:00,
2013-04-15 12:40:00,64.2,56.1,29.85,SSE,158,0.0,0.0,75,0.00,,,0.20,WeatherDisplay:10.37,2013-04-15 16:40:00,
2013-04-15 12:45:00,64.2,55.8,29.85,ESE,112,0.0,0.0,74,0.00,,,0.20,WeatherDisplay:10.37,2013-04-15 16:45:00,
2013-04-15 12:50:00,64.2,56.1,29.85,SSE,158,0.0,0.0,75,0.00,,,0.20,WeatherDisplay:10.37,2013-04-15 16:50:00,
2013-04-15 12:55:00,64.0,56.0,29.85,SSE,158,0.0,0.0,75,0.00,,,0.20,WeatherDisplay:10.37,2013-04-15 16:55:00,
2013-04-15 13:00:00,63.7,55.6,29.85,South,180,0.0,0.0,75,0.00,,,0.20,WeatherDisplay:10.37,2013-04-15 17:00:00,
2013-04-15 13:05:00,63.7,55.6,29.85,WSW,248,0.0,0.0,75,0.00,,,0.20,WeatherDisplay:10.37,2013-04-15 17:05:00,
2013-04-15 13:10:00,63.5,55.4,29.85,SSW,202,0.0,0.0,75,0.00,,,0.20,WeatherDisplay:10.37,2013-04-15 17:10:00,
2013-04-15 13:15:00,63.7,56.0,29.85,SSE,158,0.0,0.0,76,0.00,,,0.20,WeatherDisplay:10.37,2013-04-15 17:15:00,
2013-04-15 13:21:00,64.0,56.0,29.85,ESE,112,0.0,0.0,75,0.00,,,0.20,WeatherDisplay:10.37,2013-04-15 17:21:00,
2013-04-15 13:22:00,64.0,56.0,29.85,ESE,112,0.0,0.0,75,0.00,,,0.20,WeatherDisplay:10.37,2013-04-15 17:22:00,
2013-04-15 13:24:00,64.2,55.8,29.85,ESE,115,0.0,0.0,74,0.00,,,0.20,WeatherDisplay:10.37,2013-04-15 17:24:00,
2013-04-15 13:25:00,64.2,55.8,29.85,East,90,0.0,0.0,74,0.00,,,0.20,WeatherDisplay:10.37,2013-04-15 17:25:00,
2013-04-15 13:30:00,64.8,55.9,29.85,SSE,158,0.0,0.0,73,0.00,,,0.20,WeatherDisplay:10.37,2013-04-15 17:30:00,
2013-04-15 13:35:00,65.3,56.4,29.85,SSE,158,0.0,0.0,73,0.00,,,0.20,WeatherDisplay:10.37,2013-04-15 17:35:00,
2013-04-15 13:40:00,65.7,56.0,29.86,SE,135,0.0,0.0,71,0.00,,,0.20,WeatherDisplay:10.37,2013-04-15 17:40:00,
2013-04-15 13:45:00,65.8,55.8,29.85,SE,135,0.0,0.0,70,0.00,,,0.20,WeatherDisplay:10.37,2013-04-15 17:45:00,
2013-04-15 13:51:00,66.0,56.3,29.85,NNE,22,0.0,0.0,71,0.00,,,0.20,WeatherDisplay:10.37,2013-04-15 17:51:00,
2013-04-15 13:56:00,66.4,56.3,29.85,SE,135,3.3,4.6,70,0.00,,,0.20,WeatherDisplay:10.37,2013-04-15 17:56:00,
2013-04-15 14:01:00,66.4,55.9,29.85,SE,135,0.0,0.0,69,0.00,,,0.20,WeatherDisplay:10.37,2013-04-15 18:01:00,
2013-04-15 14:06:00,66.0,55.6,29.85,SE,135,0.0,0.0,69,0.00,,,0.20,WeatherDisplay:10.37,2013-04-15 18:06:00,
2013-04-15 14:11:00,65.8,55.4,29.85,South,180,0.0,3.5,69,0.00,,,0.20,WeatherDisplay:10.37,2013-04-15 18:11:00,
2013-04-15 14:16:00,65.3,55.7,29.85,South,180,0.0,3.5,71,0.00,,,0.20,WeatherDisplay:10.37,2013-04-15 18:16:00,
2013-04-15 14:22:00,65.1,55.5,29.86,SE,135,1.3,3.5,71,0.02,RA,,0.22,WeatherDisplay:10.37,2013-04-15 18:22:00,
2013-04-15 14:27:00,64.6,55.0,29.86,South,180,0.2,0.0,71,0.02,RA,,0.22,WeatherDisplay:10.37,2013-04-15 18:27:00,
2013-04-15 14:29:00,64.6,55.0,29.86,South,180,0.0,0.0,71,0.02,,,0.22,WeatherDisplay:10.37,2013-04-15 18:29:00,
2013-04-15 14:30:00,64.2,54.6,29.86,South,180,0.0,0.0,71,0.02,,,0.22,WeatherDisplay:10.37,2013-04-15 18:30:00,
2013-04-15 14:35:00,64.0,54.8,29.86,SE,135,0.0,0.0,72,0.02,,,0.22,WeatherDisplay:10.37,2013-04-15 18:35:00,
2013-04-15 14:40:00,63.9,55.0,29.86,SSW,204,1.8,3.1,73,0.02,,,0.22,WeatherDisplay:10.37,2013-04-15 18:40:00,
2013-04-15 14:45:00,63.5,54.7,29.86,SSE,158,0.0,0.0,73,0.02,,,0.22,WeatherDisplay:10.37,2013-04-15 18:45:00,
2013-04-15 14:50:00,63.1,54.3,29.86,SE,135,0.5,3.5,73,0.02,,,0.22,WeatherDisplay:10.37,2013-04-15 18:50:00,
2013-04-15 14:55:00,63.0,54.2,29.86,SSE,158,0.0,0.0,73,0.02,,,0.22,WeatherDisplay:10.37,2013-04-15 18:55:00,
2013-04-15 15:00:00,62.6,54.2,29.86,SE,135,0.0,0.0,74,0.02,,,0.22,WeatherDisplay:10.37,2013-04-15 19:00:00,
2013-04-15 15:05:00,62.4,54.0,29.86,SE,135,0.3,1.1,74,0.02,,,0.22,WeatherDisplay:10.37,2013-04-15 19:05:00,
2013-04-15 15:10:00,62.4,54.0,29.86,SE,135,0.0,0.0,74,0.02,,,0.22,WeatherDisplay:10.37,2013-04-15 19:10:00,
2013-04-15 15:15:00,62.4,54.4,29.86,SSE,158,0.8,1.1,75,0.02,,,0.22,WeatherDisplay:10.37,2013-04-15 19:15:00,
2013-04-15 15:20:00,62.4,54.4,29.86,SE,135,1.5,3.5,75,0.00,,,0.22,WeatherDisplay:10.37,2013-04-15 19:20:00,
2013-04-15 15:25:00,62.2,53.8,29.86,SE,135,0.3,2.3,74,0.00,,,0.22,WeatherDisplay:10.37,2013-04-15 19:25:00,
2013-04-15 15:30:00,62.2,54.2,29.86,SSE,158,1.9,3.5,75,0.00,,,0.22,WeatherDisplay:10.37,2013-04-15 19:30:00,
2013-04-15 15:36:00,62.2,54.2,29.86,South,180,0.0,4.6,75,0.00,,,0.22,WeatherDisplay:10.37,2013-04-15 19:36:00,
2013-04-15 15:41:00,62.2,54.2,29.86,WNW,292,0.0,0.0,75,0.00,,,0.22,WeatherDisplay:10.37,2013-04-15 19:41:00,
2013-04-15 15:46:00,62.2,54.2,29.86,SSE,158,0.0,3.5,75,0.00,,,0.22,WeatherDisplay:10.37,2013-04-15 19:46:00,
2013-04-15 15:52:00,62.2,54.2,29.86,SSE,158,1.5,2.5,75,0.00,,,0.22,WeatherDisplay:10.37,2013-04-15 19:52:00,
2013-04-15 15:57:00,62.2,54.2,29.86,South,180,0.1,5.8,75,0.00,,,0.22,WeatherDisplay:10.37,2013-04-15 19:57:00,
2013-04-15 15:58:00,62.2,54.2,29.86,South,180,0.0,0.0,75,0.00,,,0.22,WeatherDisplay:10.37,2013-04-15 19:58:00,
2013-04-15 15:59:00,62.2,54.2,29.86,South,180,0.0,0.4,75,0.00,,,0.22,WeatherDisplay:10.37,2013-04-15 19:59:00,
2013-04-15 16:02:00,62.2,54.2,29.86,South,180,0.0,1.1,75,0.00,,,0.22,WeatherDisplay:10.37,2013-04-15 20:02:00,
2013-04-15 16:03:00,62.2,54.2,29.86,South,180,0.0,0.0,75,0.00,,,0.22,WeatherDisplay:10.37,2013-04-15 20:03:00,
2013-04-15 16:08:00,62.2,54.2,29.86,South,180,0.9,4.9,75,0.00,,,0.22,WeatherDisplay:10.37,2013-04-15 20:08:00,
2013-04-15 16:13:00,62.1,53.7,29.86,SSE,158,0.5,2.3,74,0.00,,,0.22,WeatherDisplay:10.37,2013-04-15 20:13:00,
2013-04-15 16:18:00,62.1,54.0,29.86,SSE,158,0.0,2.3,75,0.00,,,0.22,WeatherDisplay:10.37,2013-04-15 20:18:00,
2013-04-15 16:23:00,61.9,53.9,29.86,SSE,158,0.0,1.1,75,0.00,,,0.22,WeatherDisplay:10.37,2013-04-15 20:23:00,
2013-04-15 16:28:00,61.9,53.9,29.87,SSE,158,0.0,1.1,75,0.00,,,0.22,WeatherDisplay:10.37,2013-04-15 20:28:00,
2013-04-15 16:33:00,61.7,53.7,29.87,South,180,1.8,4.6,75,0.00,,,0.22,WeatherDisplay:10.37,2013-04-15 20:33:00,
2013-04-15 16:38:00,61.5,53.5,29.87,South,180,0.0,0.0,75,0.00,,,0.22,WeatherDisplay:10.37,2013-04-15 20:38:00,
2013-04-15 16:43:00,61.5,53.9,29.87,South,180,0.5,6.5,76,0.00,,,0.22,WeatherDisplay:10.37,2013-04-15 20:43:00,
2013-04-15 16:48:00,61.5,53.9,29.87,ESE,112,0.0,0.0,76,0.00,,,0.22,WeatherDisplay:10.37,2013-04-15 20:48:00,
2013-04-15 16:53:00,61.5,53.9,29.87,SE,135,0.0,0.0,76,0.00,,,0.22,WeatherDisplay:10.37,2013-04-15 20:53:00,
2013-04-15 16:58:00,61.5,53.9,29.87,SE,135,0.1,3.5,76,0.00,,,0.22,WeatherDisplay:10.37,2013-04-15 20:58:00,
2013-04-15 17:03:00,61.3,53.7,29.87,ESE,112,0.3,0.9,76,0.00,,,0.22,WeatherDisplay:10.37,2013-04-15 21:03:00,
2013-04-15 17:08:00,61.3,53.7,29.87,SSE,158,0.0,3.5,76,0.00,,,0.22,WeatherDisplay:10.37,2013-04-15 21:08:00,
2013-04-15 17:13:00,61.0,53.4,29.87,SSE,158,0.0,2.3,76,0.00,,,0.22,WeatherDisplay:10.37,2013-04-15 21:13:00,
2013-04-15 17:18:00,61.0,53.4,29.87,East,90,0.0,0.0,76,0.00,,,0.22,WeatherDisplay:10.37,2013-04-15 21:18:00,
2013-04-15 17:23:00,61.0,53.4,29.87,SE,135,0.2,0.0,76,0.00,,,0.22,WeatherDisplay:10.37,2013-04-15 21:23:00,
2013-04-15 17:28:00,60.6,53.4,29.87,SE,135,0.2,1.1,77,0.00,,,0.22,WeatherDisplay:10.37,2013-04-15 21:28:00,
2013-04-15 17:33:00,60.6,53.4,29.88,SE,135,0.0,0.0,77,0.00,,,0.22,WeatherDisplay:10.37,2013-04-15 21:33:00,
2013-04-15 17:38:00,60.6,53.4,29.88,South,180,1.1,3.6,77,0.00,,,0.22,WeatherDisplay:10.37,2013-04-15 21:38:00,
2013-04-15 17:43:00,60.6,53.4,29.88,South,180,0.0,0.0,77,0.00,,,0.22,WeatherDisplay:10.37,2013-04-15 21:43:00,
2013-04-15 17:48:00,60.4,53.5,29.88,SSE,158,0.0,0.0,78,0.00,,,0.22,WeatherDisplay:10.37,2013-04-15 21:48:00,
2013-04-15 17:53:00,60.4,53.5,29.88,SSE,158,0.0,0.0,78,0.00,,,0.22,WeatherDisplay:10.37,2013-04-15 21:53:00,
2013-04-15 17:58:00,60.4,53.5,29.89,SSE,158,0.0,0.0,78,0.00,,,0.22,WeatherDisplay:10.37,2013-04-15 21:58:00,
2013-04-15 18:03:00,60.4,53.5,29.89,SSE,158,0.1,1.1,78,0.00,,,0.22,WeatherDisplay:10.37,2013-04-15 22:03:00,
2013-04-15 18:08:00,60.4,53.5,29.89,SSE,158,0.0,0.0,78,0.00,,,0.22,WeatherDisplay:10.37,2013-04-15 22:08:00,
2013-04-15 18:13:00,60.3,53.4,29.88,SSE,158,0.0,0.0,78,0.00,,,0.22,WeatherDisplay:10.37,2013-04-15 22:13:00,
2013-04-15 18:18:00,60.3,53.7,29.89,ESE,112,1.3,2.2,79,0.00,,,0.22,WeatherDisplay:10.37,2013-04-15 22:18:00,
2013-04-15 18:23:00,60.1,53.5,29.89,SSE,158,0.0,3.5,79,0.00,,,0.22,WeatherDisplay:10.37,2013-04-15 22:23:00,
2013-04-15 18:28:00,60.1,53.5,29.89,SSE,158,0.0,0.0,79,0.00,,,0.22,WeatherDisplay:10.37,2013-04-15 22:28:00,
2013-04-15 18:33:00,59.9,53.7,29.89,SSE,158,0.0,0.0,80,0.00,,,0.22,WeatherDisplay:10.37,2013-04-15 22:33:00,
2013-04-15 18:38:00,59.7,53.5,29.89,SSE,158,0.0,0.0,80,0.00,,,0.22,WeatherDisplay:10.37,2013-04-15 22:38:00,
2013-04-15 18:43:00,59.5,53.4,29.90,SSE,158,0.0,0.0,80,0.00,,,0.22,WeatherDisplay:10.37,2013-04-15 22:43:00,
2013-04-15 18:48:00,59.5,53.4,29.90,SSE,158,0.0,0.0,80,0.00,,,0.22,WeatherDisplay:10.37,2013-04-15 22:48:00,
2013-04-15 18:53:00,59.5,53.7,29.90,SSE,158,0.0,0.0,81,0.00,,,0.22,WeatherDisplay:10.37,2013-04-15 22:53:00,
2013-04-15 18:58:00,59.4,53.5,29.90,SSE,158,0.0,2.3,81,0.00,,,0.22,WeatherDisplay:10.37,2013-04-15 22:58:00,
2013-04-15 19:03:00,59.2,53.4,29.90,SSE,158,0.0,0.0,81,0.00,,,0.22,WeatherDisplay:10.37,2013-04-15 23:03:00,
2013-04-15 19:08:00,59.2,53.4,29.90,SSE,158,0.0,0.0,81,0.00,,,0.22,WeatherDisplay:10.37,2013-04-15 23:08:00,
2013-04-15 19:13:00,59.2,53.7,29.90,SSE,158,0.0,0.0,82,0.00,,,0.22,WeatherDisplay:10.37,2013-04-15 23:13:00,
2013-04-15 19:18:00,59.2,53.7,29.90,SSE,158,0.0,0.0,82,0.00,,,0.22,WeatherDisplay:10.37,2013-04-15 23:18:00,
2013-04-15 19:23:00,59.2,53.7,29.90,SSE,158,0.0,0.0,82,0.00,,,0.22,WeatherDisplay:10.37,2013-04-15 23:23:00,
2013-04-15 19:28:00,59.2,53.7,29.90,SSE,158,0.0,0.0,82,0.00,,,0.22,WeatherDisplay:10.37,2013-04-15 23:28:00,
2013-04-15 19:33:00,59.2,53.7,29.90,SSE,158,0.0,0.0,82,0.00,,,0.22,WeatherDisplay:10.37,2013-04-15 23:33:00,
2013-04-15 19:38:00,59.0,53.5,29.91,SSE,158,0.0,0.0,82,0.00,,,0.22,WeatherDisplay:10.37,2013-04-15 23:38:00,
2013-04-15 19:43:00,59.0,53.5,29.91,SSE,158,0.0,0.0,82,0.00,,,0.22,WeatherDisplay:10.37,2013-04-15 23:43:00,
2013-04-15 19:48:00,58.8,53.3,29.91,SSE,158,0.0,0.0,82,0.00,,,0.22,WeatherDisplay:10.37,2013-04-15 23:48:00,
2013-04-15 19:53:00,58.8,53.3,29.91,SSE,158,0.0,0.0,82,0.00,,,0.22,WeatherDisplay:10.37,2013-04-15 23:53:00,
2013-04-15 19:58:00,58.8,53.3,29.91,SSE,158,0.4,1.1,82,0.00,,,0.22,WeatherDisplay:10.37,2013-04-15 23:58:00,
2013-04-15 20:03:00,58.8,53.3,29.91,SSE,158,0.0,0.0,82,0.00,,,0.22,WeatherDisplay:10.37,2013-04-16 00:03:00,
2013-04-15 20:08:00,58.8,53.3,29.91,SSE,158,0.0,0.0,82,0.00,,,0.22,WeatherDisplay:10.37,2013-04-16 00:08:00,
2013-04-15 20:13:00,58.8,53.3,29.91,SSE,158,0.0,0.0,82,0.00,,,0.22,WeatherDisplay:10.37,2013-04-16 00:13:00,
2013-04-15 20:18:00,58.8,53.3,29.92,SSE,158,0.0,0.0,82,0.00,,,0.22,WeatherDisplay:10.37,2013-04-16 00:18:00,
2013-04-15 20:23:00,58.8,53.3,29.92,SSE,158,0.0,0.0,82,0.00,,,0.22,WeatherDisplay:10.37,2013-04-16 00:23:00,
2013-04-15 20:28:00,58.6,53.5,29.92,SSE,158,0.0,0.0,83,0.00,,,0.22,WeatherDisplay:10.37,2013-04-16 00:28:00,
2013-04-15 20:33:00,58.6,53.5,29.92,SSE,158,0.0,0.0,83,0.00,,,0.22,WeatherDisplay:10.37,2013-04-16 00:33:00,
2013-04-15 20:38:00,58.6,53.5,29.92,SSE,158,0.0,0.0,83,0.00,,,0.22,WeatherDisplay:10.37,2013-04-16 00:38:00,
2013-04-15 20:43:00,58.6,53.5,29.93,SSE,158,0.0,0.0,83,0.00,,,0.22,WeatherDisplay:10.37,2013-04-16 00:43:00,
2013-04-15 20:48:00,58.6,53.5,29.93,SSE,158,0.0,0.0,83,0.00,,,0.22,WeatherDisplay:10.37,2013-04-16 00:48:00,
2013-04-15 20:53:00,58.6,53.5,29.93,SSE,158,0.0,0.0,83,0.00,,,0.22,WeatherDisplay:10.37,2013-04-16 00:53:00,
2013-04-15 20:58:00,58.5,53.3,29.94,SSE,158,0.0,0.0,83,0.00,,,0.22,WeatherDisplay:10.37,2013-04-16 00:58:00,
2013-04-15 21:03:00,58.5,53.3,29.93,SSE,158,0.0,0.0,83,0.00,,,0.22,WeatherDisplay:10.37,2013-04-16 01:03:00,
2013-04-15 21:08:00,58.5,53.3,29.94,SSE,158,0.0,0.0,83,0.00,,,0.22,WeatherDisplay:10.37,2013-04-16 01:08:00,
2013-04-15 21:13:00,58.5,53.3,29.94,SSE,158,0.0,0.0,83,0.00,,,0.22,WeatherDisplay:10.37,2013-04-16 01:13:00,
2013-04-15 21:18:00,58.5,53.3,29.94,SSE,158,0.0,0.0,83,0.00,,,0.22,WeatherDisplay:10.37,2013-04-16 01:18:00,
2013-04-15 21:23:00,58.5,53.3,29.95,SSE,158,0.0,0.0,83,0.00,,,0.22,WeatherDisplay:10.37,2013-04-16 01:23:00,
2013-04-15 21:28:00,58.5,53.3,29.95,SSE,158,0.0,0.0,83,0.00,,,0.22,WeatherDisplay:10.37,2013-04-16 01:28:00,
2013-04-15 21:33:00,58.3,53.1,29.95,SSE,158,0.0,0.0,83,0.00,,,0.22,WeatherDisplay:10.37,2013-04-16 01:33:00,
2013-04-15 21:38:00,58.3,53.1,29.95,SSE,158,0.0,0.0,83,0.00,,,0.22,WeatherDisplay:10.37,2013-04-16 01:38:00,
2013-04-15 21:43:00,58.3,53.1,29.95,SSE,158,0.0,0.0,83,0.00,,,0.22,WeatherDisplay:10.37,2013-04-16 01:43:00,
2013-04-15 21:48:00,58.3,53.5,29.96,SSE,158,0.0,0.0,84,0.00,,,0.22,WeatherDisplay:10.37,2013-04-16 01:48:00,
2013-04-15 21:53:00,58.3,53.5,29.96,SSE,158,0.0,0.0,84,0.00,,,0.22,WeatherDisplay:10.37,2013-04-16 01:53:00,
2013-04-15 21:58:00,58.3,53.5,29.96,SSE,158,0.0,0.0,84,0.00,,,0.22,WeatherDisplay:10.37,2013-04-16 01:58:00,
2013-04-15 22:03:00,58.1,53.3,29.96,SSE,158,0.0,0.0,84,0.00,,,0.22,WeatherDisplay:10.37,2013-04-16 02:03:00,
2013-04-15 22:08:00,58.1,53.3,29.96,SSE,158,0.0,0.0,84,0.00,,,0.22,WeatherDisplay:10.37,2013-04-16 02:08:00,
2013-04-15 22:13:00,58.1,53.3,29.95,SSE,158,0.0,0.0,84,0.00,,,0.22,WeatherDisplay:10.37,2013-04-16 02:13:00,
2013-04-15 22:18:00,58.1,53.3,29.96,SSE,158,0.0,0.0,84,0.00,,,0.22,WeatherDisplay:10.37,2013-04-16 02:18:00,
2013-04-15 22:23:00,57.9,53.1,29.96,SSE,158,0.0,0.0,84,0.00,,,0.22,WeatherDisplay:10.37,2013-04-16 02:23:00,
2013-04-15 22:28:00,57.9,53.1,29.96,SSE,158,0.0,0.0,84,0.00,,,0.22,WeatherDisplay:10.37,2013-04-16 02:28:00,
2013-04-15 22:33:00,57.9,53.1,29.97,SSE,158,0.0,0.0,84,0.00,,,0.22,WeatherDisplay:10.37,2013-04-16 02:33:00,
2013-04-15 22:38:00,57.9,53.1,29.96,SSE,158,0.0,0.0,84,0.00,,,0.22,WeatherDisplay:10.37,2013-04-16 02:38:00,
2013-04-15 22:43:00,57.9,53.1,29.97,SSE,158,0.0,0.0,84,0.00,,,0.22,WeatherDisplay:10.37,2013-04-16 02:43:00,
2013-04-15 22:48:00,57.9,53.1,29.97,SSE,158,0.0,0.0,84,0.00,,,0.22,WeatherDisplay:10.37,2013-04-16 02:48:00,
2013-04-15 22:53:00,57.9,53.1,29.97,SSE,158,0.0,0.0,84,0.00,,,0.22,WeatherDisplay:10.37,2013-04-16 02:53:00,
2013-04-15 22:58:00,57.9,53.1,29.97,SSE,158,0.0,0.0,84,0.00,,,0.22,WeatherDisplay:10.37,2013-04-16 02:58:00,
2013-04-15 23:03:00,57.7,52.9,29.97,SSE,158,0.0,0.0,84,0.00,,,0.22,WeatherDisplay:10.37,2013-04-16 03:03:00,
2013-04-15 23:08:00,57.6,52.8,29.97,SSE,158,0.0,0.0,84,0.00,,,0.22,WeatherDisplay:10.37,2013-04-16 03:08:00,
2013-04-15 23:13:00,57.4,52.6,29.97,SSE,158,0.0,0.0,84,0.00,,,0.22,WeatherDisplay:10.37,2013-04-16 03:13:00,
2013-04-15 23:18:00,57.4,52.9,29.97,SSE,158,0.0,0.0,85,0.00,,,0.22,WeatherDisplay:10.37,2013-04-16 03:18:00,
2013-04-15 23:23:00,57.4,52.9,29.96,SSE,158,0.0,0.0,85,0.00,,,0.22,WeatherDisplay:10.37,2013-04-16 03:23:00,
2013-04-15 23:28:00,57.4,52.9,29.97,SSE,158,0.0,0.0,85,0.00,,,0.22,WeatherDisplay:10.37,2013-04-16 03:28:00,
2013-04-15 23:33:00,57.4,52.9,29.97,SSE,158,0.0,0.0,85,0.00,,,0.22,WeatherDisplay:10.37,2013-04-16 03:33:00,
2013-04-15 23:38:00,57.4,52.9,29.97,SSE,158,0.0,0.0,85,0.00,,,0.22,WeatherDisplay:10.37,2013-04-16 03:38:00,
2013-04-15 23:43:00,57.2,52.7,29.97,SSE,158,0.0,0.0,85,0.00,,,0.22,WeatherDisplay:10.37,2013-04-16 03:43:00,
2013-04-15 23:48:00,57.2,52.7,29.97,SSE,158,0.0,0.0,85,0.00,,,0.22,WeatherDisplay:10.37,2013-04-16 03:48:00,
2013-04-15 23:53:00,57.0,52.6,29.97,SSE,158,0.0,0.0,85,0.00,,,0.22,WeatherDisplay:10.37,2013-04-16 03:53:00,
2013-04-15 23:58:00,57.0,52.6,29.97,SSE,158,0.0,0.0,85,0.00,,,0.22,WeatherDisplay:10.37,2013-04-16 03:58:00,